This is the latest recevied weather packets stored in our database for station/object KC0UFP. If no packets are shown the sender has not sent any weather packets the latest 10 day(s).
| Time | Temp. | Humidity | Pressure | Rain* | Wind** | Luminosity | Snow |
|---|---|---|---|---|---|---|---|
| 1777395699 | 22.22° C | 87% | 1015 hPa | 0 mm | - | 567 W/m² | - |
| 1777395395 | 22.22° C | 87% | 1015.1 hPa | 0 mm | - | 503 W/m² | - |
| 1777395093 | 22.78° C | 89% | 1015.2 hPa | 0 mm | - | 583 W/m² | - |
| 1777394790 | 22.78° C | 89% | 1015.3 hPa | 0 mm | - | 520 W/m² | - |
| 1777394486 | 21.67° C | 88% | 1015.1 hPa | 0 mm | - | 598 W/m² | - |
| 1777394182 | 22.22° C | 91% | 1014.9 hPa | 0 mm | - | 589 W/m² | - |
| 1777393878 | 21.67° C | 90% | 1014.8 hPa | 0 mm | - | 519 W/m² | - |
| 1777393577 | 21.67° C | 90% | 1014.8 hPa | 0 mm | - | 681 W/m² | - |
| 1777393272 | 21.67° C | 91% | 1014.9 hPa | 0 mm | - | 1087 W/m² | - |
| 1777392970 | 21.67° C | 90% | 1014.8 hPa | 0 mm | - | 439 W/m² | - |
| 1777392670 | 21.67° C | 89% | 1015.2 hPa | 0 mm | - | 381 W/m² | - |
| 1777392367 | 21.11° C | 90% | 1015.3 hPa | 0 mm | - | 468 W/m² | - |
| 1777392062 | 21.11° C | 91% | 1015.3 hPa | 0 mm | - | 372 W/m² | - |
| 1777391757 | 21.11° C | 91% | 1015.3 hPa | 0 mm | - | 376 W/m² | - |
| 1777391454 | 21.11° C | 91% | 1015.3 hPa | 0 mm | - | 329 W/m² | - |
| 1777391150 | 20.56° C | 92% | 1015.2 hPa | 0 mm | - | 326 W/m² | - |
| 1777390846 | 21.11° C | 91% | 1015.5 hPa | 0 mm | - | 307 W/m² | - |
| 1777390543 | 21.11° C | 91% | 1015.4 hPa | 0 mm | - | 315 W/m² | - |
| 1777390240 | 21.11° C | 92% | 1015.3 hPa | 0 mm | - | 374 W/m² | - |
| 1777389936 | 20.56° C | 92% | 1015.7 hPa | 0 mm | - | 403 W/m² | - |
| 1777389633 | 20.56° C | 93% | 1015.7 hPa | 0 mm | - | 232 W/m² | - |
| 1777389329 | 20.56° C | 93% | 1015.8 hPa | 0 mm | - | 334 W/m² | - |
| 1777389027 | 20° C | 92% | 1015.7 hPa | 0 mm | - | 188 W/m² | - |
| 1777388724 | 20.56° C | 93% | 1015.7 hPa | 0 mm | - | 217 W/m² | - |
| 1777388421 | 20° C | 95% | 1015.7 hPa | 0 mm | - | 247 W/m² | - |
* Rain latest hour (hover to see other rain measurements)
** Current wind speed in m/s (hover to see current wind gust speed)